P/2020 G1 ( Pimentel ) 2027

Japanese version
Home page
Updated on March 4, 2025

---------------------------------------------------------------------

* Profile

* Orbital Elements

Epoch 2027 Feb. 4.0 TT = JDT 2461440.5                                          
T 2027 Jan. 18.79918 TT                                 Rudenko                 
q   0.5018526            (2000.0)            P               Q                  
n   0.14433983     Peri.  207.64769     +0.06005320     -0.95952111             
a   3.5992493      Node   240.10275     +0.96438819     +0.12690442             
e   0.8605674      Incl.   18.50569     +0.25758308     -0.25142494             
P   6.83                                                                        
From 468 observations 2020 Apr. 13-June 20, mean residual 0".9.                 

* Finding Charts

* Magnitudes Graph

        m1 = 16.5 + 5 log d + 5.0 log r

---------------------------------------------------------------------

The orbital elements are published on M.P.E.C. 2020-O07.
The charts are made with StellaNavigator Ver.11 (AstroArts).
The magnitudes graphs are made with Comet for Windows.

---------------------------------------------------------------------

Copyright(C) Seiichi Yoshida (comet@aerith.net). All rights reserved.